Location: Westminster
(33.3626°N, 96.4619°W)
Time: 07:53:23
(UTC+00:00)

Cosmos 1515 Rocket - Pass Details

Date: 30 June 2022
Orbit: 604 x 630 km, 82.5° (Epoch: 14 August)

Event Time Altitude Azimuth Distance (km) Brightness Sun altitude
Rises 09:20:43 0° 1° (N) 2,897 7.8 -20.3°
Reaches altitude 10° 09:23:02 10° 7° (N) 1,983 6.9 -20.0°
Maximum altitude 09:27:15 45° 81° (E) 835 4.5 -19.4°
Drops below altitude 10° 09:31:25 10° 154° (SSE) 1,956 5.9 -18.8°
Enters shadow 09:31:36 - 155° (SSE) 2,029 6.0 -18.8°
